User: anonymous   Login
Location: NJAA Observatory
(40.6819°N, 74.8979°W)
Time: 21:29:34
(UTC-05:00)
Language:

Cosmos 1461 - Orbit

View from above orbital plane
View from above orbital plane
View from above satellite
View from above satellite

Ground track
Ground track

The orbit data is extracted from the following two-line orbital elements,

1 14064U 83044A   18052.97076500  .00000312  00000-0  40509-4 0  9992
2 14064  64.9991 231.7564 0117728 301.1264  57.8345 14.93979142760662
Epoch (UTC): 21 February 2018 23:17:54
Eccentricity: 0.0117728
inclination: 64.9991°
perigee height: 503 km
apogee height: 667 km
right ascension of ascending node: 231.7564°
argument of perigee: 301.1264°
revolutions per day: 14.93979142
mean anomaly at epoch: 57.8345°
orbit number at epoch: 76066

The dashed part of the orbit path shows where the satellite is in the earth's shadow,  

DLR